Showing default

QIANFAN-72, 62802

Orbit data source: Space-Track

QIANFAN-72, 62802 is a Chinese payload satellite in LEO that was launched on Thu, 23 Jan 2025 UTC via a CHANG ZHENG 6A launch vehicle from the Taiyaun Space Center, China (TSC). Payload-class satellites include a variety of spacecraft equipped with specific instruments for various scientific and technological missions. These include communications satellites like Starlink; space stations such as the ISS; scientific satellites like the Hubble; Earth observation satellites from companies like Planet Labs, Umbra, and HawkEye 360; GPS; miniature CubeSats for education and research; and military/defense satellites.

Loading next visibility...
Identifier
62802, 2025-016T
Orbit
LEO
Last TLE update
6 hours ago
Origin
Manufacturer
SECM
Mission
Operational Commercial Communications
Bus & Motor
QIANFAN, Unknown motor
Mass
267 kg wet, ~267 kg dry
Launch date (UTC)
2025-01-23 (5 months ago)
Launch vehicle
CHANG ZHENG 6A
Launch site
Taiyaun Space Center, China (TSC)
Object type
Payload
Rocket body
Debris
Shape & HBR
Box + 1 Pan, 10 m
Radar Cross Section
13.200 m², Large (>1 m²)

Expand to show TLE details & history

TLE from 6 hours ago
0 QIANFAN-72
1 62802U 25016T   25186.50324869  .00000123  00000-0  17126-3 0  9997
2 62802  88.9845 119.6330 0021469  95.9774 264.3824 13.50955508 25599
Epoch: 2025-07-05T12:04Z
TLE epoch observation values (Epoch: 2025-07-05T12:04:40.686Z)
Latitude
-0.00011°
Longitude
14.72312°
Altitude
1,073.298 km
Speed
7.315 km/s
True Right ascension
07h 58m 31s
True Declination
0° 00' 00"
Sunlit
Object was in daylight at epoch
Visualization orbit readout
Latitude
70.67662°
Longitude
-168.1846°
Altitude
1,065.533 km
Speed
7.333 km/s
Apparent Right ascension
18h 30m 23s
Apparent Declination
22° 15' 00"
Sunlit
Object is in daylight
Visualization observer readout
Local Sidereal Time
05:52:22
Azimuth
350.103° N
Elevation
-27.204°
Doppler factor
1
Orbital elements
Apogee altitude
1,081.778 km
Perigee altitude
1,049.815 km
Semi-major axis
7,443.933 km
Eccentricity
0.00215
Inclination
88.9845°
RAAN
119.633°
Arg. of periapsis
95.9774°
True anomaly
Unknown
Mean anomaly
264.3824°
Eccentric anomaly
Unknown
Mean motion
3.3794 °/min
Orbital period
106.53 mins
BSTAR
0.00017126
Loading maneuver chart data...
Loading SW <> Apogee altitude chart data...
Loading historical data...
Loading historical data...
Loading historical data...
Loading historical data...
Loading historical data...
Loading historical data...
Loading historical data...

QIANFAN-72 Visibility forecast

Observer location: undefined°, undefined°

Span
Click to sort rows by Start time (UTC) header in descending order
Start Az.
Max El. time (UTC)
Max El. Az.
Max El.
End time (UTC)
End Az.
11 mins2025-07-05 19:17:55.129Z147.091° SSE2025-07-05 19:22:55.129Z90.258° ESE33.991°2025-07-05 19:28:55.129Z14.566° NNE
9 mins2025-07-05 21:05:55.129Z229.327° WSW2025-07-05 21:09:55.129Z278.122° WNW26.221°2025-07-05 21:14:55.129Z334.136° NNW
7 mins2025-07-06 06:28:55.129Z43.074° NE2025-07-06 06:31:55.129Z75.316° E19.1°2025-07-06 06:35:55.129Z117.43° SE
11 mins2025-07-06 08:13:55.129Z351.482° N2025-07-06 08:18:55.129Z285.354° WNW41.345°2025-07-06 08:24:55.129Z198.038° SSW
|